Location: *
(51.5000°N, 0.1100°W)
Time: 21:00:26
(UTC+00:00)

SL-8 R/B - Pass Details

Date: 25 May 2024
Orbit: 652 x 662 km, 48.4° (Epoch: 16 June)

Event Time Altitude Azimuth Distance (km) Brightness Sun altitude
Rises 00:12:46 0° 277° (W) 2,974 7.1 -17.4°
Reaches altitude 10° 00:15:12 10° 270° (W) 2,063 6.2 -17.4°
Maximum altitude 00:19:40 42° 200° (SSW) 934 4.0 -17.3°
Enters shadow 00:21:59 25° 145° (SE) 1,330 4.8 -17.3°
